User: anonymous   Login
Location: Pacheco
(37.9835°N, 122.0752°W)
Time: 10:15:48
(UTC+00:00)
Language:

NOSS 2-2 (E) - Orbit

View from above orbital plane
View from above orbital plane
View from above satellite
View from above satellite

Ground track
Ground track

The orbit data is extracted from the following two-line orbital elements,

1 21809U 91076E   24205.93869414  .00006925  00000-0  69069-3 0  9995
2 21809  63.3035 198.6996 0903783  61.7576 307.1683 13.49032363 10454
Epoch (UTC): 23 July 2024 22:31:43
Eccentricity: 0.0903783
inclination: 63.3035°
perigee height: 402 km
apogee height: 1749 km
right ascension of ascending node: 198.6996°
argument of perigee: 61.7576°
revolutions per day: 13.49032363
mean anomaly at epoch: 307.1683°
orbit number at epoch: 1045

The dashed part of the orbit path shows where the satellite is in the earth's shadow,  

DLR